Location: Round Knob
(37.2473°N, 88.7376°W)
Time: 15:16:22
(UTC+00:00)

NOSS 3-3 (A) - Pass Details

Date: 29 October 2020
Orbit: 819 x 1393 km, 63.4° (Epoch: 29 November)

Event Time Altitude Azimuth Distance (km) Brightness Sun altitude
Rises 23:21:59 0° 194° (SSW) 3,344 7.2 -5.1°
Reaches altitude 10° 23:24:24 10° 189° (S) 2,439 6.4 -5.6°
Maximum altitude 23:29:46 49° 115° (ESE) 1,118 4.1 -6.6°
Drops below altitude 10° 23:35:41 10° 42° (NE) 2,696 5.8 -7.8°
Sets 23:38:29 0° 38° (NE) 3,731 6.6 -8.3°
Enters shadow 23:38:31 - 38° (NE) 3,744 6.6 -8.3°
